timestamp,surface_pressure_avg,surface_temp_avg,battery_voltage,lat,long
2018-03-03 00:00:00+00:00,369.4514,1.07,12.89,47.84626,-54.09684
2018-03-03 00:10:00+00:00,368.5413,1.1,12.81,47.84626,-54.09684
2018-03-03 00:20:00+00:00,372.7679,1.0,12.89,47.84626,-54.09684
2018-03-03 00:30:00+00:00,372.4713,1.06,12.89,47.84626,-54.09684
2018-03-03 00:40:00+00:00,366.3846,1.2,12.97,47.84626,-54.09684
2018-03-03 00:50:00+00:00,365.2313,1.25,12.97,47.84626,-54.09684
2018-03-03 01:00:00+00:00,367.4196,1.2,12.89,47.84626,-54.09684
2018-03-03 01:10:00+00:00,360.963,1.27,12.81,47.84626,-54.09684
2018-03-03 01:20:00+00:00,350.9779,1.3,12.89,47.84626,-54.09684
2018-03-03 01:30:00+00:00,347.9464,1.3,12.89,47.84626,-54.09684
2018-03-03 01:40:00+00:00,346.8813,1.3,12.89,47.84626,-54.09684
2018-03-03 01:50:00+00:00,341.0864,1.3,12.89,47.84626,-54.09684
2018-03-03 02:00:00+00:00,330.2213,1.3,12.81,47.84626,-54.09684
2018-03-03 02:10:00+00:00,325.7463,1.27,12.81,47.84626,-54.09684
2018-03-03 02:20:00+00:00,321.4097,1.21,12.89,47.84626,-54.09684
2018-03-03 02:30:00+00:00,311.4146,1.2,12.89,47.84626,-54.09684
2018-03-03 02:40:00+00:00,301.5647,1.2,12.89,47.84626,-54.09684
2018-03-03 02:50:00+00:00,293.5714,1.2,12.89,47.84626,-54.09684
2018-03-03 03:00:00+00:00,282.9297,1.1,12.81,47.84626,-54.09684
2018-03-03 03:10:00+00:00,268.8481,1.29,12.81,47.84626,-54.09684
2018-03-03 03:20:00+00:00,261.3665,1.2,12.89,47.84626,-54.09684
2018-03-03 03:30:00+00:00,254.8664,1.1,12.89,47.84626,-54.09684
2018-03-03 03:40:00+00:00,243.1831,1.13,12.89,47.84626,-54.09684
2018-03-03 03:50:00+00:00,229.4481,1.2,12.89,47.84626,-54.09684
2018-03-03 04:00:00+00:00,223.2364,1.19,12.81,47.84626,-54.09684
2018-03-03 04:10:00+00:00,218.2748,1.2,12.81,47.84626,-54.09684
2018-03-03 04:20:00+00:00,209.2181,1.4,12.89,47.84626,-54.09684
2018-03-03 04:30:00+00:00,199.9231,1.49,12.89,47.84626,-54.09684
2018-03-03 04:40:00+00:00,193.6365,1.5,12.89,47.84626,-54.09684
2018-03-03 04:50:00+00:00,183.6765,1.26,12.89,47.84626,-54.09684
2018-03-03 05:00:00+00:00,172.5965,1.2,12.81,47.84626,-54.09684
2018-03-03 05:10:00+00:00,171.5182,1.2,12.81,47.84626,-54.09684
2018-03-03 05:20:00+00:00,171.5365,1.15,12.81,47.84626,-54.09684
2018-03-03 05:30:00+00:00,165.1881,1.16,12.81,47.84626,-54.09684
2018-03-03 05:40:00+00:00,161.2448,1.1,12.89,47.84626,-54.09684
2018-03-03 05:50:00+00:00,164.1815,1.1,12.89,47.84626,-54.09684
2018-03-03 06:00:00+00:00,166.1631,1.1,12.81,47.84626,-54.09684
2018-03-03 06:10:00+00:00,163.0399,1.1,12.73,47.84626,-54.09684
2018-03-03 06:20:00+00:00,161.5715,1.1,12.81,47.84626,-54.09684
2018-03-03 06:30:00+00:00,165.3065,1.1,12.81,47.84626,-54.09684
2018-03-03 06:40:00+00:00,170.1448,1.11,12.89,47.84626,-54.09684
2018-03-03 06:50:00+00:00,171.7865,1.12,12.89,47.84626,-54.09684
2018-03-03 07:00:00+00:00,172.5248,1.1,12.81,47.84626,-54.09684
2018-03-03 07:10:00+00:00,177.7564,1.1,12.73,47.84626,-54.09684
2018-03-03 07:20:00+00:00,182.8531,1.1,12.81,47.84626,-54.09684
2018-03-03 07:30:00+00:00,188.3615,1.16,12.81,47.84626,-54.09684
2018-03-03 07:40:00+00:00,194.0631,1.2,12.81,47.84626,-54.09684
2018-03-03 07:50:00+00:00,196.8448,1.37,12.81,47.84626,-54.09684
2018-03-03 08:00:00+00:00,202.1731,1.3,12.81,47.84626,-54.09684
2018-03-03 08:10:00+00:00,209.5015,1.13,12.73,47.84626,-54.09684
2018-03-03 08:20:00+00:00,212.4465,1.14,12.81,47.84626,-54.09684
2018-03-03 08:30:00+00:00,214.3631,1.19,12.81,47.84626,-54.09684
2018-03-03 08:40:00+00:00,221.5381,1.19,12.81,47.84626,-54.09684
2018-03-03 08:50:00+00:00,228.0381,1.2,12.81,47.84626,-54.09684
2018-03-03 09:00:00+00:00,230.7365,1.19,12.81,47.84626,-54.09684
2018-03-03 09:10:00+00:00,235.7247,1.19,12.73,47.84626,-54.09684
2018-03-03 09:20:00+00:00,243.718,1.19,12.81,47.84626,-54.09684
2018-03-03 09:30:00+00:00,250.4048,1.2,12.81,47.84626,-54.09684
2018-03-03 09:40:00+00:00,254.2247,1.19,12.81,47.84626,-54.09684
2018-03-03 09:50:00+00:00,260.3064,1.19,12.81,47.84626,-54.09684
2018-03-03 10:00:00+00:00,272.1664,1.2,12.81,47.84626,-54.09684
2018-03-03 10:10:00+00:00,282.798,1.2,12.73,47.84626,-54.09684
2018-03-03 10:20:00+00:00,288.4481,1.2,12.81,47.84626,-54.09684
2018-03-03 10:30:00+00:00,298.0014,1.2,12.81,47.84626,-54.09684
2018-03-03 10:40:00+00:00,311.6663,1.2,12.81,47.84626,-54.09684
2018-03-03 10:50:00+00:00,322.6114,1.2,12.81,47.84626,-54.09684
2018-03-03 11:00:00+00:00,329.9431,1.19,12.81,47.84626,-54.09684
2018-03-03 11:10:00+00:00,340.118,1.19,12.73,47.84626,-54.09684
2018-03-03 11:20:00+00:00,347.643,1.19,12.81,47.84626,-54.09684
2018-03-03 11:30:00+00:00,354.808,1.2,12.89,47.84626,-54.09684
2018-03-03 11:40:00+00:00,361.178,1.19,12.89,47.84626,-54.09684
2018-03-03 11:50:00+00:00,365.2096,1.2,12.89,47.84626,-54.09684
2018-03-03 12:00:00+00:00,369.3896,1.2,12.89,47.84626,-54.09684
2018-03-03 12:10:00+00:00,374.5745,1.2,12.81,47.84626,-54.09684
2018-03-03 12:20:00+00:00,374.5113,1.2,12.97,47.84626,-54.09684
2018-03-03 12:30:00+00:00,374.4079,1.24,12.97,47.84626,-54.09684
2018-03-03 12:40:00+00:00,378.6829,1.2,13.05,47.84626,-54.09684
2018-03-03 12:50:00+00:00,379.3229,1.2,13.13,47.84626,-54.09684
2018-03-03 13:00:00+00:00,377.9513,1.2,13.29,47.84626,-54.09684
2018-03-03 13:10:00+00:00,379.3445,1.22,13.37,47.84626,-54.09684
2018-03-03 13:20:00+00:00,378.6529,1.3,13.68,47.84626,-54.09684
2018-03-03 13:30:00+00:00,375.1462,1.34,13.68,47.84626,-54.09684
2018-03-03 13:40:00+00:00,373.1363,1.3,13.68,47.84626,-54.09684
2018-03-03 13:50:00+00:00,372.9229,1.3,13.68,47.84626,-54.09684
2018-03-03 14:00:00+00:00,369.5713,1.2,13.53,47.84626,-54.09684
2018-03-03 14:10:00+00:00,365.8445,1.29,13.37,47.84626,-54.09684
2018-03-03 14:20:00+00:00,359.9596,1.4,13.44,47.84626,-54.09684
2018-03-03 14:30:00+00:00,355.5163,1.42,13.53,47.84626,-54.09684
2018-03-03 14:40:00+00:00,352.8946,1.4,13.84,47.84626,-54.09684
2018-03-03 14:50:00+00:00,345.3113,1.47,13.44,47.84626,-54.09684
2018-03-03 15:00:00+00:00,334.8846,1.5,13.68,47.84626,-54.09684
2018-03-03 15:10:00+00:00,326.5047,1.4,13.68,47.84626,-54.09684
2018-03-03 15:20:00+00:00,315.593,1.4,13.53,47.84626,-54.09684
2018-03-03 15:30:00+00:00,302.183,1.4,13.6,47.84626,-54.09684
2018-03-03 15:40:00+00:00,290.648,1.36,13.6,47.84626,-54.09684
2018-03-03 15:50:00+00:00,280.9564,1.3,13.68,47.84626,-54.09684
2018-03-03 16:00:00+00:00,268.4498,1.4,13.68,47.84626,-54.09684
2018-03-03 16:10:00+00:00,251.818,1.43,13.53,47.84626,-54.09684
2018-03-03 16:20:00+00:00,242.5214,1.5,13.68,47.84626,-54.09684
2018-03-03 16:30:00+00:00,235.3464,1.3,13.6,47.84626,-54.09684
2018-03-03 16:40:00+00:00,222.3597,1.47,13.6,47.84626,-54.09684
2018-03-03 16:50:00+00:00,210.5098,1.6,13.44,47.84626,-54.09684
2018-03-03 17:00:00+00:00,205.8864,1.69,13.44,47.84626,-54.09684
2018-03-03 17:10:00+00:00,197.1298,1.76,13.29,47.84626,-54.09684
2018-03-03 17:20:00+00:00,183.6082,1.82,13.44,47.84626,-54.09684
2018-03-03 17:30:00+00:00,178.9182,1.7,13.44,47.84626,-54.09684
2018-03-03 17:40:00+00:00,176.8548,1.7,13.44,47.84626,-54.09684
2018-03-03 17:50:00+00:00,167.6598,1.73,13.44,47.84626,-54.09684
2018-03-03 18:00:00+00:00,161.8831,1.8,13.29,47.84626,-54.09684
2018-03-03 18:10:00+00:00,162.5365,1.65,13.21,47.84626,-54.09684
2018-03-03 18:20:00+00:00,161.9498,1.5,13.29,47.84626,-54.09684
2018-03-03 18:30:00+00:00,162.1631,1.4,13.29,47.84626,-54.09684
2018-03-03 18:40:00+00:00,163.2015,1.44,13.21,47.84626,-54.09684
2018-03-03 18:50:00+00:00,163.0782,1.77,13.21,47.84626,-54.09684
2018-03-03 19:00:00+00:00,163.2632,1.8,13.13,47.84626,-54.09684
2018-03-03 19:10:00+00:00,164.8598,1.7,13.05,47.84626,-54.09684
2018-03-03 19:20:00+00:00,166.6131,1.7,13.13,47.84626,-54.09684
2018-03-03 19:30:00+00:00,169.7398,1.69,13.13,47.84626,-54.09684
2018-03-03 19:40:00+00:00,172.7315,1.6,13.13,47.84626,-54.09684
2018-03-03 19:50:00+00:00,177.2698,1.58,13.21,47.84626,-54.09684
2018-03-03 20:00:00+00:00,185.0731,1.5,13.13,47.84626,-54.09684
2018-03-03 20:10:00+00:00,192.0531,1.58,13.05,47.84626,-54.09684
2018-03-03 20:20:00+00:00,199.3882,1.73,13.05,47.84626,-54.09684
2018-03-03 20:30:00+00:00,206.0481,1.53,13.05,47.84626,-54.09684
2018-03-03 20:40:00+00:00,209.7231,1.5,13.05,47.84626,-54.09684
2018-03-03 20:50:00+00:00,213.9198,1.44,13.05,47.84626,-54.09684
2018-03-03 21:00:00+00:00,220.3481,1.4,12.97,47.84626,-54.09684
2018-03-03 21:10:00+00:00,225.0614,1.4,12.89,47.84626,-54.09684
2018-03-03 21:20:00+00:00,231.4914,1.4,12.97,47.84626,-54.09684
2018-03-03 21:30:00+00:00,238.218,1.4,12.97,47.84626,-54.09684
2018-03-03 21:40:00+00:00,245.4481,1.4,12.97,47.84626,-54.09684
2018-03-03 21:50:00+00:00,252.5031,1.4,12.97,47.84626,-54.09684
2018-03-03 22:00:00+00:00,260.1897,1.4,12.97,47.84626,-54.09684
2018-03-03 22:10:00+00:00,267.2598,1.4,12.89,47.84626,-54.09684
2018-03-03 22:20:00+00:00,276.9581,1.4,12.97,47.84626,-54.09684
2018-03-03 22:30:00+00:00,284.098,1.4,12.97,47.84626,-54.09684
2018-03-03 22:40:00+00:00,289.9197,1.46,12.97,47.84626,-54.09684
2018-03-03 22:50:00+00:00,295.7963,1.5,12.97,47.84626,-54.09684
2018-03-03 23:00:00+00:00,308.0614,1.5,12.89,47.84626,-54.09684
2018-03-03 23:10:00+00:00,315.6696,1.5,12.89,47.84626,-54.09684
2018-03-03 23:20:00+00:00,323.1246,1.5,12.97,47.84626,-54.09684
2018-03-03 23:30:00+00:00,336.8547,1.5,12.97,47.84626,-54.09684
2018-03-03 23:40:00+00:00,349.4029,1.5,12.97,47.84626,-54.09684
2018-03-03 23:50:00+00:00,350.7713,1.5,12.97,47.84626,-54.09684
